VIR76 KMCO-EGCC

Flight info

Callsign VIR76
Flight time N/A
Altitude 34000
Route FSHUN4 PLUMR DCT KLEET/N0478F350 DCT FROGZ DCT MARCK DCT SUMRS/M082F350 M204 FLUPS DCT JNFOX DCT KINER/M082F370 M202 JEBBY/N0468F370 DCT NICSO/M082F380 NATW XETBO/N0473F390 DCT BOFUM Q37 MALUD
Aircraft A333/H-SDE3GHIJ2J3J5M1RVWXY/LB2D1

Departure

Time 2026-04-20 21:25
Airport Orlando International Airport (KMCO)

Arrival

Time N/A
Airport Manchester Airport (EGCC)
Time Latitude Longitude Altitude Speed Heading
2026-04-20 21:21 28.42335 -81.30694 110 ft 20 kts 266°
2026-04-20 21:21 28.42322 -81.30871 103 ft 25 kts 265°
2026-04-20 21:21 28.42321 -81.31075 103 ft 26 kts 278°
2026-04-20 21:21 28.42340 -81.31209 103 ft 26 kts 279°
2026-04-20 21:22 28.42349 -81.31409 102 ft 24 kts 268°
2026-04-20 21:22 28.42344 -81.31594 106 ft 23 kts 270°
2026-04-20 21:22 28.42345 -81.31828 107 ft 19 kts 269°
2026-04-20 21:22 28.42345 -81.31931 108 ft 19 kts 265°
2026-04-20 21:23 28.42258 -81.31985 108 ft 17 kts 184°
2026-04-20 21:23 28.42152 -81.31984 107 ft 16 kts 179°
2026-04-20 21:23 28.42028 -81.31981 105 ft 20 kts 179°
2026-04-20 21:23 28.41877 -81.31977 102 ft 22 kts 180°
2026-04-20 21:24 28.41715 -81.31978 102 ft 25 kts 180°
2026-04-20 21:24 28.41564 -81.31990 101 ft 7 kts 212°
2026-04-20 21:24 28.41541 -81.32063 102 ft 15 kts 266°
2026-04-20 21:24 28.41561 -81.32169 101 ft 13 kts 315°
2026-04-20 21:25 28.41677 -81.32199 101 ft 28 kts 359°
2026-04-20 21:25 28.42095 -81.32203 106 ft 96 kts 359°
2026-04-20 21:25 28.43004 -81.32219 145 ft 161 kts
2026-04-20 21:25 28.44225 -81.32262 822 ft 184 kts
2026-04-20 21:26 28.45491 -81.32298 1634 ft 180 kts
2026-04-20 21:26 28.46762 -81.32303 2192 ft 185 kts
2026-04-20 21:26 28.48054 -81.32301 2661 ft 185 kts
2026-04-20 21:26 28.49354 -81.32301 3099 ft 188 kts
2026-04-20 21:27 28.50721 -81.32306 3526 ft 205 kts
2026-04-20 21:27 28.52215 -81.32436 3935 ft 225 kts 358°
2026-04-20 21:27 28.53831 -81.32658 4375 ft 243 kts 354°
2026-04-20 21:27 28.55478 -81.33174 4827 ft 254 kts 341°
2026-04-20 21:28 28.57109 -81.33963 5261 ft 257 kts 338°
2026-04-20 21:28 28.58634 -81.35040 5692 ft 261 kts 319°
2026-04-20 21:28 28.59605 -81.36799 6145 ft 271 kts 289°
2026-04-20 21:28 28.59797 -81.38954 6601 ft 277 kts 272°
2026-04-20 21:29 28.59766 -81.41162 7027 ft 280 kts 273°
2026-04-20 21:29 28.59719 -81.43382 7464 ft 281 kts 273°
2026-04-20 21:29 28.59659 -81.45612 7905 ft 294 kts 266°
2026-04-20 21:29 28.59075 -81.47934 8336 ft 320 kts 243°
2026-04-20 21:30 28.57525 -81.49845 8766 ft 343 kts 217°
2026-04-20 21:30 28.55262 -81.50871 9241 ft 359 kts 192°
2026-04-20 21:30 28.52760 -81.51253 9688 ft 365 kts 187°
2026-04-20 21:30 28.50230 -81.51568 10141 ft 366 kts 189°
2026-04-20 21:31 28.47700 -81.51964 10545 ft 368 kts 190°
2026-04-20 21:31 28.45164 -81.52382 10975 ft 368 kts 190°
2026-04-20 21:31 28.42632 -81.52817 11408 ft 369 kts 192°
2026-04-20 21:31 28.40085 -81.53270 11840 ft 371 kts 192°
2026-04-20 21:32 28.37533 -81.53732 12289 ft 372 kts 191°
2026-04-20 21:32 28.34963 -81.54118 12744 ft 375 kts 185°
2026-04-20 21:32 28.32347 -81.54075 13191 ft 378 kts 179°
2026-04-20 21:32 28.29706 -81.53849 13646 ft 381 kts 178°
2026-04-20 21:33 28.27055 -81.53600 14114 ft 384 kts 178°
2026-04-20 21:33 28.24383 -81.53352 14537 ft 386 kts 178°
2026-04-20 21:33 28.21684 -81.53105 14960 ft 388 kts 179°
2026-04-20 21:33 28.18991 -81.52862 15383 ft 389 kts 179°
2026-04-20 21:34 28.16282 -81.52618 15822 ft 391 kts 179°
2026-04-20 21:34 28.13620 -81.52380 16248 ft 393 kts 179°
2026-04-20 21:34 28.10865 -81.52134 16694 ft 395 kts 180°
2026-04-20 21:34 28.08116 -81.51890 17138 ft 396 kts 179°
2026-04-20 21:35 28.05353 -81.51644 17598 ft 398 kts 180°
2026-04-20 21:35 28.02583 -81.51397 18059 ft 400 kts 180°
2026-04-20 21:35 27.99800 -81.51150 18523 ft 402 kts 180°
2026-04-20 21:35 27.97003 -81.50910 18934 ft 404 kts 181°
2026-04-20 21:36 27.94199 -81.50952 19339 ft 400 kts 192°
2026-04-20 21:36 27.91506 -81.51612 19744 ft 394 kts 204°
2026-04-20 21:36 27.89031 -81.52900 20190 ft 389 kts 216°
2026-04-20 21:36 27.86769 -81.54566 20607 ft 389 kts 220°
2026-04-20 21:37 27.84615 -81.56351 21047 ft 390 kts 222°
2026-04-20 21:37 27.82470 -81.58228 21489 ft 391 kts 223°
2026-04-20 21:37 27.80360 -81.60103 21921 ft 391 kts 222°
2026-04-20 21:37 27.78214 -81.62002 22375 ft 393 kts 223°
2026-04-20 21:38 27.76053 -81.63892 22832 ft 394 kts 223°
2026-04-20 21:38 27.73871 -81.65759 23314 ft 396 kts 220°
2026-04-20 21:38 27.71517 -81.67419 23784 ft 401 kts 213°
2026-04-20 21:38 27.68931 -81.68712 24187 ft 408 kts 205°
2026-04-20 21:39 27.66168 -81.69519 24592 ft 415 kts 195°
2026-04-20 21:39 27.63333 -81.69911 25004 ft 418 kts 192°
2026-04-20 21:39 27.60390 -81.70150 25414 ft 419 kts 190°
2026-04-20 21:39 27.57476 -81.70305 25828 ft 418 kts 189°
2026-04-20 21:40 27.54577 -81.70434 26287 ft 415 kts 189°
2026-04-20 21:40 27.51692 -81.70560 26714 ft 413 kts 190°
2026-04-20 21:40 27.48820 -81.70696 27081 ft 414 kts 190°
2026-04-20 21:40 27.45968 -81.70846 27364 ft 415 kts 191°
2026-04-20 21:41 27.43077 -81.71010 27674 ft 417 kts 191°